This is the latest recevied weather packets stored in our database for station/object WY7EM. If no packets are shown the sender has not sent any weather packets the latest 1 day(s).
| Time | Temp. | Humidity | Pressure | Rain* | Wind** | Luminosity | Snow |
|---|---|---|---|---|---|---|---|
| 1777983203 | 10.56° C | 38% | 1010.4 hPa | 0 mm | 0.45 m/s, 6° | 0 W/m² | - |
| 1777982899 | 10.56° C | 37% | 1010.2 hPa | 0 mm | 0 m/s | 0 W/m² | - |
| 1777982595 | 10.56° C | 37% | 1010.4 hPa | 0 mm | 0 m/s | 0 W/m² | - |
| 1777982294 | 10.56° C | 36% | 1010.5 hPa | 0 mm | 0.89 m/s, 79° | 0 W/m² | - |
| 1777981992 | 11.11° C | 35% | 1010.5 hPa | 0 mm | 0.89 m/s, 76° | 0 W/m² | - |
| 1777981689 | 11.11° C | 35% | 1010.7 hPa | 0 mm | 1.34 m/s, 52° | 0 W/m² | - |
| 1777981385 | 11.11° C | 35% | 1010.5 hPa | 0 mm | 0 m/s | 0 W/m² | - |
| 1777981082 | 11.11° C | 35% | 1010.6 hPa | 0 mm | 0 m/s | 0 W/m² | - |
| 1777980778 | 11.67° C | 34% | 1010.6 hPa | 0 mm | 0 m/s | 0 W/m² | - |
| 1777980474 | 10.56° C | 36% | 1010.6 hPa | 0 mm | 0.89 m/s, 68° | 0 W/m² | - |
| 1777980172 | 10.56° C | 36% | 1010.6 hPa | 0 mm | 0 m/s | 0 W/m² | - |
| 1777979872 | 11.11° C | 35% | 1010.7 hPa | 0 mm | 0 m/s | 0 W/m² | - |
| 1777979568 | 11.67° C | 35% | 1010.5 hPa | 0 mm | 0 m/s | 0 W/m² | - |
| 1777979264 | 12.22° C | 33% | 1010.7 hPa | 0 mm | 0 m/s | 0 W/m² | - |
| 1777978962 | 12.22° C | 32% | 1010.6 hPa | 0 mm | 1.79 m/s, 43° | 0 W/m² | - |
| 1777978658 | 12.78° C | 32% | 1010.6 hPa | 0 mm | 0.89 m/s, 110° | 0 W/m² | - |
| 1777978354 | 11.67° C | 33% | 1010.6 hPa | 0 mm | 0.45 m/s, 8° | 0 W/m² | - |
| 1777978051 | 11.67° C | 34% | 1010.6 hPa | 0 mm | 0.45 m/s, 33° | 0 W/m² | - |
| 1777977748 | 12.22° C | 33% | 1010.5 hPa | 0 mm | 0 m/s | 0 W/m² | - |
| 1777977444 | 12.22° C | 32% | 1010.7 hPa | 0 mm | 0 m/s | 0 W/m² | - |
| 1777977142 | 12.78° C | 32% | 1010.7 hPa | 0 mm | 0 m/s | 0 W/m² | - |
| 1777976840 | 12.78° C | 32% | 1010.5 hPa | 0 mm | 0 m/s | 0 W/m² | - |
| 1777976538 | 12.78° C | 32% | 1010.4 hPa | 0 mm | 0 m/s | 0 W/m² | - |
| 1777976236 | 13.33° C | 31% | 1010.6 hPa | 0 mm | 0.45 m/s, 317° | 0 W/m² | - |
| 1777975932 | 13.33° C | 31% | 1010.5 hPa | 0 mm | 2.24 m/s, 248° | 0 W/m² | - |
* Rain latest hour (hover to see other rain measurements)
** Current wind speed in m/s (hover to see current wind gust speed)